Temperature
16 16 16 16 16 17 17 17 18 18 19 18 17 17 16 16 16 16 16 16 16 16 16 16 15 15 15 15 15 15 15 15 15 15 14 14 14 14
16 16 16 16 16 16 16 17 17 17 18 18 17 17 16 16 16 16 16 16 16 16 16 16 16 15 15 15 15 15 15 15 15 15 14 14 14 14
16 16 16 16 16 16 16 16 16 16 17 17 17 16 16 16 16 16 15 15 16 16 16 16 15 15 15 15 15 15 15 15 15 15 14 14 14 14
15 15 15 15 15 16 16 16 16 16 16 16 16 16 15 15 15 15 15 16 15 15 15 15 15 15 15 15 15 15 15 15 14 14 14 14 14 14
15 15 15 15 15 15 15 15 15 16 15 15 16 16 15 15 15 15 15 15 15 15 15 15 15 15 15 15 15 15 14 14 14 14 14 14 14 14
15 15 15 15 15 15 15 15 15 15 15 15 15 15 15 15 14 14 15 15 14 15 15 15 14 14 14 14 14 14 14 14 14 14 14 14 14 13
15 15 15 15 15 15 15 15 14 14 15 15 15 15 15 14 14 14 14 14 14 14 14 14 14 14 14 14 14 14 14 13 13 13 13 13 13 13
14 14 14 14 14 14 14 14 14 14 14 14 14 14 14 13 13 13 13 14 14 14 13 13 13 13 13 13 13 13 13 13 13 13 13 12 12 13
14 14 14 14 14 14 14 14 14 14 14 13 13 13 13 13 13 12 12 12 12 12 12 12 13 13 12 13 12 12 12 12 12 12 12 12 12 12
14 14 14 14 13 13 13 13 13 13 13 12 12 12 12 12 12 11 11 11 12 12 11 12 12 12 12 12 11 11 11 11 11 11 11 11 11 11
13 13 13 13 13 13 13 12 12 12 12 12 12 12 12 11 11 11 11 11 11 11 11 10 11 11 11 11 11 11 10 10 10 10 10 10 10 10
12 12 12 12 12 12 12 12 11 11 11 11 11 11 11 10 10 10 10 10 10 11 10 10 10 10 10 10 10 10 10 9 9 9 9 9 9 9
12 11 11 11 11 11 11 11 11 11 10 10 10 9 9 9 9 9 9 9 9 9 9 8 9 9 9 9 9 9 9 9 9 9 9 9 8 8
11 11 10 10 10 10 10 10 10 10 9 9 9 9 9 8 8 8 8 8 8 8 8 8 7 7 8 8 9 9 8 8 8 8 8 8 8 8
10 10 10 9 9 9 9 9 9 9 8 8 8 8 7 7 7 7 7 7 7 7 7 7 7 7 7 7 8 8 8 8 8 7 7 7 7 7
9 9 8 8 8 8 8 8 7 7 7 7 7 7 7 6 6 6 6 6 7 7 7 6 6 6 6 6 7 7 7 7 7 7 7 6 7 7
8 8 7 7 7 7 7 7 6 6 6 6 6 6 6 6 6 6 6 6 6 6 6 6 6 5 5 5 6 6 6 6 6 6 5 6 6 6
7 7 7 7 6 6 6 6 6 5 5 5 5 5 5 5 5 5 5 5 5 5 5 5 5 5 6 6 5 5 5 5 5 5 5 5 5 6
7 6 6 6 5 5 5 5 5 4 4 4 4 4 4 4 4 4 4 4 4 5 5 4 4 4 5 5 5 5 4 4 4 4 5 5 5 5
6 6 5 5 5 4 4 4 4 4 4 4 3 3 3 4 4 4 4 3 3 4 4 4 4 3 3 3 4 4 4 4 4 4 4 4 4 4
5 5 4 4 4 4 3 3 3 3 3 3 3 2 3 3 3 3 3 2 3 3 3 3 3 2 2 3 3 4 4 3 3 3 3 3 4 4
4 4 4 3 3 3 3 3 3 3 2 2 2 2 2 2 2 2 2 2 2 2 2 2 2 2 3 3 3 3 4 3 3 3 3 3 3 3
3 3 3 3 3 3 2 2 2 2 2 2 2 2 2 2 2 2 2 2 2 2 2 2 2 2 3 3 3 3 3 3 3 4 4 3 2 2
Wind_Speed
7 8 8 6 6 6 5 6 6 6 4 5 5 4 5 5 4 7 8 11 13 13 13 13 14 14 14 14 14 14 14 14 14 14 14 14 14 15
6 6 7 6 6 6 6 6 6 7 6 3 3 3 2 5 5 7 8 8 12 13 14 14 14 14 14 14 14 14 14 15 15 15 15 15 15 15
7 7 8 7 6 6 6 6 7 6 7 6 4 3 3 6 3 5 7 8 10 14 13 13 14 14 14 14 14 14 14 15 15 15 15 15 15 15
8 8 8 7 7 7 6 7 6 6 7 8 6 4 5 6 5 6 8 8 8 9 12 12 12 13 13 13 13 14 14 14 15 15 15 15 15 15
8 8 8 8 8 7 7 7 7 7 7 7 7 5 5 4 5 6 7 6 9 7 10 12 12 12 13 13 13 13 13 14 14 15 15 15 15 16
7 7 7 7 8 8 7 7 7 7 6 7 7 5 5 4 4 5 6 5 6 7 6 6 10 13 15 14 14 12 12 12 13 14 15 15 16 16
5 5 5 3 2 3 5 5 6 6 6 6 6 5 4 3 4 5 6 6 6 5 6 6 6 8 9 13 13 10 10 11 11 12 13 14 15 16
5 4 4 3 2 2 2 3 4 4 5 5 4 4 4 4 5 6 6 6 6 4 5 7 6 6 7 8 3 6 7 8 9 10 11 13 14 15
4 3 3 2 3 3 3 3 0 3 3 4 4 5 5 5 6 6 6 7 8 7 6 8 7 7 7 4 3 1 3 5 7 9 10 12 13 14
2 2 2 1 1 2 2 2 2 1 0 1 2 3 4 5 5 6 7 7 8 6 5 7 7 7 7 5 1 3 2 4 6 8 9 10 11 13
4 3 2 2 4 2 2 2 2 2 4 5 4 3 4 5 6 5 5 6 7 5 2 5 6 7 7 6 3 6 5 6 7 9 10 11 12 13
5 6 9 7 7 5 2 2 2 1 1 1 2 1 1 2 2 4 5 6 6 5 3 5 7 7 7 5 4 5 6 7 9 11 11 11 11 11
5 5 6 10 11 10 7 5 3 2 1 2 2 2 3 3 4 5 6 5 6 5 5 6 7 7 7 8 8 7 8 8 8 8 10 11 12 11
6 6 7 11 13 11 8 6 4 2 2 2 3 4 4 5 5 5 5 5 5 6 7 7 6 7 9 10 9 8 8 8 9 9 9 8 11 13
9 12 10 8 9 9 9 6 4 4 4 4 5 5 5 5 4 4 4 3 4 5 5 6 7 8 8 10 10 10 10 9 7 8 9 9 9 8
11 11 10 9 8 7 6 6 7 7 6 5 5 5 5 5 5 5 6 6 6 5 3 5 7 8 9 10 10 11 10 9 9 9 9 10 10 10
7 6 6 6 7 7 7 7 7 6 6 6 5 5 5 6 6 6 6 7 7 7 7 6 7 8 9 10 10 10 10 10 9 9 10 11 10 9
5 7 7 7 7 6 6 6 7 7 7 6 6 6 6 6 6 6 6 7 8 8 8 8 9 9 10 6 4 9 9 10 10 10 11 11 11 9
7 8 7 7 6 6 6 6 6 6 6 6 6 6 6 6 7 7 7 8 8 8 9 9 9 9 11 11 7 4 10 11 11 11 10 10 11 10
8 8 7 7 7 6 6 6 6 6 6 6 6 6 7 7 7 7 7 9 9 9 9 8 8 9 10 11 12 11 8 10 10 11 11 11 11 10
8 8 7 7 6 6 6 5 6 6 6 6 6 7 7 7 7 8 8 7 9 9 9 9 8 9 10 10 10 10 9 7 8 10 12 11 11 11
7 7 7 7 6 5 5 5 5 6 6 6 6 6 7 7 7 8 8 9 8 9 10 10 10 9 9 10 11 12 12 11 10 11 11 10 9 10
7 6 6 6 6 5 6 6 6 6 6 7 7 7 7 7 7 8 8 8 9 10 11 10 10 9 10 10 10 11 13 13 11 10 7 6 11 14
Wind_Direction
224 220 232 229 234 241 246 255 265 264 242 204 222 208 224 233 205 230 234 208 215 226 232 236 239 241 243 244 245 247 249 249 250 251 252 252 254 255
233 234 235 234 230 236 241 245 255 266 273 258 227 238 251 256 202 234 241 203 216 225 230 235 238 241 243 245 247 249 250 251 251 250 251 252 253 253
224 226 229 244 240 236 234 239 241 247 258 264 251 232 235 268 248 250 248 239 228 211 221 232 238 241 243 245 248 251 253 254 254 254 254 255 255 253
221 227 232 230 230 247 243 241 241 246 255 265 271 254 233 245 253 260 260 252 260 202 209 226 235 239 243 246 249 252 254 256 257 258 258 257 257 256
222 224 231 235 232 235 237 242 241 238 245 259 262 263 255 250 255 256 261 263 267 236 207 217 225 235 243 246 248 251 253 256 258 259 260 260 261 261
226 227 230 235 236 238 238 244 249 250 244 252 260 257 251 249 259 269 267 253 263 275 270 248 226 229 238 240 243 247 251 256 260 261 261 262 263 264
220 225 227 228 281 267 263 255 249 248 250 249 257 260 262 274 273 277 280 280 268 271 279 274 256 249 242 232 229 237 248 257 261 262 265 267 268 268
212 212 204 177 154 141 40 11 340 276 271 272 269 276 289 289 295 293 295 290 286 299 288 281 280 277 277 273 210 214 241 255 264 270 273 273 273 272
203 207 219 188 175 191 168 169 30 1 337 287 285 296 301 309 305 295 297 295 295 302 296 285 285 285 284 302 89 186 243 262 275 280 282 281 280 278
162 186 184 155 169 190 177 149 120 65 17 268 302 318 325 323 303 293 293 286 275 273 291 286 293 296 298 300 158 171 224 272 286 288 289 288 287 283
95 74 84 101 55 65 137 138 123 109 90 89 78 67 38 10 339 306 302 294 293 295 314 293 300 304 296 283 230 185 222 246 259 270 277 281 283 285
95 79 62 62 54 46 115 123 117 84 51 111 114 137 36 55 8 337 324 310 309 309 2 321 308 313 299 294 304 292 271 251 248 255 260 266 276 286
100 85 68 65 63 55 56 66 48 357 52 56 56 45 36 25 16 11 356 332 321 316 342 331 315 313 303 303 305 303 304 302 294 282 259 249 252 265
95 91 86 81 76 66 65 50 24 357 56 60 52 39 27 19 13 6 2 352 336 316 320 322 311 314 309 303 303 305 304 302 302 304 304 283 257 251
90 92 91 91 97 84 67 43 33 48 50 48 42 32 19 9 349 343 338 321 291 295 322 328 313 310 304 301 305 308 309 309 308 309 310 310 306 296
101 104 102 87 86 86 84 64 59 52 43 43 35 24 9 1 357 351 339 331 321 318 322 318 310 306 300 302 300 301 304 305 310 312 314 307 302 300
108 103 93 87 77 69 64 57 51 50 46 36 26 15 6 357 352 349 341 327 323 325 324 320 314 301 291 291 297 302 306 306 309 318 310 303 301 302
96 93 83 75 68 63 61 57 51 42 30 21 16 9 1 353 347 345 341 335 331 328 326 328 325 317 305 291 287 305 309 313 314 311 304 303 303 307
88 83 78 71 63 56 51 47 42 38 20 13 10 4 355 348 345 343 340 337 333 328 328 327 326 324 318 316 321 322 319 315 312 312 311 308 305 309
77 76 73 67 60 53 48 42 35 28 19 10 7 2 355 348 346 344 342 344 332 326 326 329 335 335 324 315 310 308 305 309 315 315 314 310 305 302
72 70 66 61 57 51 43 34 29 23 15 2 7 360 353 347 346 342 337 336 321 326 330 330 337 316 303 302 302 309 319 311 296 299 308 308 310 313
69 67 62 57 51 42 34 25 21 19 11 2 1 352 347 343 342 337 336 334 333 332 328 324 323 317 316 313 313 314 316 317 301 269 262 275 306 314
66 62 59 53 46 34 25 21 16 14 9 360 353 346 343 341 337 333 331 330 330 329 326 324 325 324 320 316 315 317 319 320 319 317 308 246 250 261
Height
1571 1572 1573 1575 1576 1577 1578 1578 1579 1578 1578 1578 1579 1579 1579 1579 1578 1578 1578 1578 1577 1578 1577 1577 1577 1577 1577 1577 1577 1576 1576 1576 1576 1575 1575 1575 1575 1575
1568 1569 1570 1572 1573 1574 1575 1575 1576 1577 1576 1576 1577 1577 1576 1577 1576 1575 1575 1574 1574 1574 1574 1574 1574 1573 1573 1573 1573 1572 1572 1571 1571 1571 1571 1570 1570 1570
1565 1566 1567 1568 1570 1571 1572 1572 1573 1574 1574 1574 1574 1573 1572 1572 1573 1572 1572 1571 1571 1570 1570 1570 1570 1569 1569 1568 1568 1568 1567 1567 1566 1566 1566 1565 1565 1565
1561 1562 1564 1565 1565 1567 1568 1569 1569 1570 1570 1570 1570 1570 1569 1569 1568 1568 1569 1569 1568 1566 1566 1565 1565 1564 1564 1563 1563 1562 1562 1562 1561 1561 1560 1560 1560 1559
1558 1559 1560 1561 1562 1563 1564 1565 1566 1566 1567 1567 1567 1567 1566 1566 1565 1564 1565 1563 1564 1563 1561 1560 1559 1559 1558 1558 1557 1557 1556 1556 1555 1555 1554 1554 1553 1553
1554 1555 1556 1558 1559 1560 1561 1561 1562 1562 1562 1563 1563 1563 1562 1562 1561 1561 1561 1560 1559 1559 1558 1556 1554 1553 1553 1552 1551 1551 1550 1549 1549 1548 1548 1547 1547 1546
1551 1552 1553 1554 1555 1556 1558 1558 1559 1559 1559 1559 1559 1559 1559 1558 1558 1558 1557 1556 1555 1554 1553 1552 1551 1549 1548 1547 1545 1545 1544 1544 1543 1542 1541 1541 1540 1539
1548 1549 1550 1551 1551 1552 1553 1554 1555 1555 1556 1556 1556 1556 1555 1555 1554 1554 1553 1553 1552 1551 1549 1548 1547 1546 1544 1543 1541 1539 1538 1537 1536 1535 1535 1534 1533 1532
1545 1546 1548 1548 1548 1549 1550 1550 1551 1551 1552 1552 1552 1552 1552 1551 1550 1550 1549 1548 1547 1546 1545 1543 1543 1541 1540 1538 1535 1534 1533 1531 1530 1529 1528 1527 1525 1524
1542 1543 1544 1545 1545 1546 1547 1547 1548 1548 1548 1549 1549 1548 1548 1547 1547 1546 1545 1544 1542 1542 1540 1539 1538 1537 1535 1533 1530 1528 1527 1526 1524 1522 1521 1520 1519 1517
1539 1540 1541 1542 1542 1543 1544 1545 1545 1546 1546 1546 1546 1545 1544 1543 1543 1543 1542 1541 1540 1539 1536 1535 1533 1532 1530 1528 1526 1523 1522 1520 1518 1516 1515 1513 1512 1510
1536 1537 1538 1539 1540 1541 1542 1543 1543 1543 1543 1543 1542 1542 1542 1541 1539 1539 1538 1538 1537 1536 1533 1532 1530 1528 1526 1524 1522 1520 1518 1515 1513 1511 1509 1507 1506 1504
1535 1536 1536 1537 1538 1539 1540 1540 1540 1540 1541 1541 1541 1540 1540 1539 1537 1536 1535 1534 1534 1533 1531 1529 1527 1526 1524 1521 1519 1517 1514 1512 1510 1507 1505 1502 1501 1499
1534 1535 1535 1536 1537 1538 1538 1538 1539 1539 1540 1540 1540 1539 1538 1537 1535 1534 1532 1531 1530 1529 1527 1525 1524 1522 1520 1517 1515 1513 1510 1508 1506 1503 1501 1498 1496 1494
1533 1534 1535 1536 1536 1537 1537 1537 1538 1539 1539 1539 1538 1537 1536 1535 1533 1532 1531 1529 1527 1526 1525 1522 1521 1519 1517 1515 1512 1509 1506 1504 1502 1499 1496 1494 1492 1489
1533 1534 1535 1536 1537 1537 1537 1538 1538 1537 1538 1538 1537 1536 1536 1534 1533 1531 1530 1528 1527 1526 1523 1520 1517 1515 1513 1511 1508 1505 1503 1500 1498 1495 1492 1489 1487 1485
1535 1537 1538 1539 1539 1539 1539 1538 1538 1538 1538 1537 1537 1537 1535 1534 1533 1531 1529 1527 1526 1524 1521 1519 1516 1513 1510 1508 1505 1503 1500 1497 1494 1491 1487 1485 1483 1480
1537 1539 1540 1540 1541 1541 1541 1540 1540 1539 1538 1538 1537 1536 1535 1534 1532 1530 1528 1526 1524 1522 1519 1516 1514 1511 1508 1505 1503 1500 1497 1494 1490 1487 1484 1481 1478 1476
1540 1540 1541 1542 1542 1542 1542 1541 1540 1540 1538 1538 1537 1535 1534 1532 1531 1529 1527 1525 1522 1520 1517 1514 1512 1509 1506 1502 1499 1497 1494 1490 1487 1484 1481 1477 1474 1471
1542 1542 1543 1543 1543 1543 1542 1542 1541 1540 1539 1538 1537 1535 1533 1532 1530 1528 1526 1523 1521 1518 1515 1513 1510 1507 1504 1501 1497 1494 1491 1488 1484 1480 1477 1474 1470 1467
1544 1544 1544 1545 1544 1544 1543 1542 1541 1540 1539 1538 1537 1535 1533 1531 1529 1527 1525 1521 1519 1517 1514 1511 1508 1504 1501 1498 1494 1491 1488 1485 1481 1477 1473 1470 1466 1463
1546 1546 1546 1545 1545 1544 1544 1543 1542 1541 1539 1538 1536 1534 1532 1530 1528 1526 1523 1521 1518 1515 1512 1509 1505 1502 1499 1496 1492 1488 1484 1481 1477 1473 1470 1467 1464 1460
1547 1547 1547 1547 1546 1545 1544 1543 1542 1541 1539 1537 1536 1534 1532 1530 1527 1525 1522 1519 1517 1514 1510 1507 1504 1501 1497 1494 1490 1486 1482 1478 1474 1470 1467 1464 1461 1457